Regional Weather Roundup
Issued by NWS

Home | Current Version | Previous Version | Text Only | Print | Product List | Glossary Off
Versions: 1 2 3 4 5 6 7 8 9 10 11 12 13 14 15 16 17 18 19 20 21 22 23 24 25 26 27 28 29 30 31 32 33 34 35 36 37 38 39 40 41 42 43 44 45 46 47 48 49 50

145
ASUS43 KOAX 290510
RWRNE

WEATHER ROUNDUP FOR NEBRASKA
NATIONAL WEATHER SERVICE OMAHA NE
1200 AM CDT MON AUG 29 2016

NOTES: SATELLITE DATA IS BEING USED TO AUGMENT CLOUD COVER ABOVE
       12000 FEET.
       "FAIR" INDICATES FEW OR NO CLOUDS BELOW 12,000 FEET WITH NO
       SIGNIFICANT WEATHER AND/OR OBSTRUCTIONS TO VISIBILITY.

  * THESE STATIONS DO NOT REPORT WEATHER SUCH AS RAIN...SNOW OR FOG.

NEZ001>004-019>022-054>056-290600-
NEBRASKA PANHANDLE

CITY           SKY/WX    TMP DP  RH WIND       PRES   REMARKS
SCOTTSBLUFF    PTCLDY    63  56  78 NE7       30.15R
ALLIANCE       CLOUDY    60  55  83 SE9       30.15R
CHADRON        PTCLDY    69  51  52 CALM      30.09R
KIMBALL        CLOUDY    65  50  57 SW7       30.21S
SIDNEY         PTCLDY    63  49  60 S9        30.19S
$$

NEZ057>060-069>072-079>082-290600-
SOUTHWEST NEBRASKA

CITY           SKY/WX    TMP DP  RH WIND       PRES   REMARKS
NORTH PLATTE   CLEAR     63  58  83 SE6       30.15R
IMPERIAL       CLEAR     65  60  84 MISG      30.16R
LEXINGTON      PTCLDY    67  63  86 CALM      30.13S
MCCOOK         CLOUDY    69  61  75 SE6       30.14R
OGALLALA       CLEAR     68  59  72 E3        30.16R
$$

NEZ005>010-023>029-035>040-094-290600-
NORTH CENTRAL NEBRASKA

CITY           SKY/WX    TMP DP  RH WIND       PRES   REMARKS
VALENTINE      CLEAR     73  56  54 S12       30.10R
AINSWORTH      CLEAR     69  63  81 S9        30.12S
BROKEN BOW     CLEAR     61  60  97 CALM      30.13S
O`NEILL        CLEAR     75  68  79 SE9       30.12S
ORD            CLEAR     70  63  78 E6        30.12R
THEDFORD       CLEAR     69  62  78 CALM      30.15S
$$

NEZ041-046>049-061>064-073>077-083>087-290600-
SOUTH CENTRAL NEBRASKA

CITY           SKY/WX    TMP DP  RH WIND       PRES   REMARKS
GRAND ISLAND   MOCLDY    72  66  81 S13       30.16R
AURORA         CLOUDY    72  67  85 S10       30.16R
HASTINGS       TSTM      66  64  93 S16G31    30.18R
HEBRON         RAIN      67  64  91 S8        30.15S
HOLDREGE       CLOUDY    69  63  82 S8        30.14R
KEARNEY *      PTCLDY    70  64  83 SE12      30.14R
YORK           CLOUDY    72  66  83 S10       30.15R
$$

NEZ011>018-030>034-042>045-290600-
NORTHEAST NEBRASKA

CITY           SKY/WX    TMP DP  RH WIND       PRES   REMARKS
NORFOLK        PTCLDY    68  65  90 SE3       30.12S
ALBION         CLEAR     70  67  88 SE6       30.13S
BLAIR          MOCLDY    69  66  88 E5        30.15R
FREMONT        PTCLDY    70  65  84 SE3       30.14R
TEKAMAH        CLOUDY    67  65  93 SE5       30.13R
WAYNE          CLEAR     69  66  92 CALM      30.12F
$$

NEZ050>053-065>068-078-088>093-290600-
SOUTHEAST NEBRASKA

CITY           SKY/WX    TMP DP  RH WIND       PRES   REMARKS
LINCOLN        MOCLDY    72  66  81 S3        30.14R
OMAHA EPPLEY   CLOUDY    73  66  78 SE3       30.14R
BEATRICE       RAIN      70  69  96 CALM      30.15S
FALLS CITY     CLOUDY    70  68  93 N5        30.13S
NEBRASKA CITY  DRIZZLE   70  68  95 S6        30.13F
PLATTSMOUTH    CLOUDY    71  66  83 SE6       30.14R
$$

NEZ044-045-051>053-067-290600-
OMAHA AREA

CITY           SKY/WX    TMP DP  RH WIND       PRES   REMARKS
OMAHA EPPLEY   CLOUDY    73  66  78 SE3       30.14R
BLAIR          MOCLDY    69  66  88 E5        30.15R
FREMONT        PTCLDY    70  65  84 SE3       30.14R
MILLARD        MOCLDY    72  66  83 CALM      30.14R
OFFUTT AFB     CLOUDY    70  68  91 E7        30.13R
PLATTSMOUTH    CLOUDY    71  66  83 SE6       30.14R
WAHOO          FAIR      67  65  92 SE5       30.13R
$$




USA.gov is the U.S. government's official web portal to all federal, state and local government web resources and services.